This is the latest recevied weather packets stored in our database for station/object W1GK. If no packets are shown the sender has not sent any weather packets the latest 10 day(s).
| Time | Temp. | Humidity | Pressure | Rain* | Wind** | Luminosity | Snow |
|---|---|---|---|---|---|---|---|
| 1787949596 | 41.67° C | 16% | 1013.6 hPa | 0 mm | - | 925 W/m² | - |
| 1787948996 | 41.11° C | 16% | 1013.9 hPa | 0 mm | - | 306 W/m² | - |
| 1787948396 | 41.67° C | 16% | 1014 hPa | 0 mm | - | 438 W/m² | - |
| 1787947796 | 41.67° C | 16% | 1014.1 hPa | 0 mm | - | 578 W/m² | - |
| 1787947196 | 41.67° C | 16% | 1014.3 hPa | 0 mm | - | 589 W/m² | - |
| 1787946595 | 41.67° C | 16% | 1014.4 hPa | 0 mm | - | 953 W/m² | - |
| 1787945995 | 41.67° C | 16% | 1014.5 hPa | 0 mm | - | 990 W/m² | - |
| 1787945395 | 41.11° C | 16% | 1014.7 hPa | 0 mm | - | 731 W/m² | - |
| 1787944795 | 41.11° C | 17% | 1014.9 hPa | 0 mm | - | 995 W/m² | - |
| 1787944197 | 41.11° C | 17% | 1015.2 hPa | 0 mm | - | 475 W/m² | - |
| 1787943597 | 40.56° C | 17% | 1015.3 hPa | 0 mm | - | 1028 W/m² | - |
| 1787942995 | 40.56° C | 17% | 1015.4 hPa | 0 mm | - | 643 W/m² | - |
| 1787942397 | 40° C | 18% | 1015.5 hPa | 0 mm | - | 758 W/m² | - |
| 1787941795 | 39.44° C | 18% | 1015.7 hPa | 0 mm | - | 742 W/m² | - |
| 1787941195 | 39.44° C | 18% | 1015.7 hPa | 0 mm | - | 638 W/m² | - |
| 1787940596 | 38.89° C | 20% | 1015.7 hPa | 0 mm | - | 919 W/m² | - |
| 1787939998 | 37.78° C | 20% | 1015.8 hPa | 0 mm | - | 728 W/m² | - |
| 1787939395 | 37.78° C | 19% | 1015.8 hPa | 0 mm | - | 448 W/m² | - |
| 1787938795 | 37.78° C | 19% | 1015.8 hPa | 0 mm | - | 376 W/m² | - |
| 1787938196 | 37.22° C | 19% | 1015.7 hPa | 0 mm | - | 552 W/m² | - |
| 1787937597 | 36.11° C | 20% | 1015.7 hPa | 0 mm | - | 519 W/m² | - |
| 1787936994 | 36.11° C | 20% | 1015.7 hPa | 0 mm | - | 274 W/m² | - |
| 1787936396 | 36.11° C | 20% | 1015.7 hPa | 0 mm | - | 258 W/m² | - |
| 1787935794 | 36.11° C | 20% | 1015.7 hPa | 0 mm | - | 292 W/m² | - |
| 1787935194 | 36.11° C | 20% | 1015.6 hPa | 0 mm | - | 318 W/m² | - |
* Rain latest hour (hover to see other rain measurements)
** Current wind speed in m/s (hover to see current wind gust speed)